Location: Brusselsch Zeekanaal
(50.8667°N, 4.3667°E)
Time: 23:18:19
(UTC+00:00)

CZ-2C R/B - Pass Details

Date: 08 November 2025
Orbit: 664 x 773 km, 98.4° (Epoch: 04 December)

Event Time Altitude Azimuth Distance (km) Brightness Sun altitude
Rises 05:51:15 0° 2° (N) 3,168 5.6 -9.0°
Reaches altitude 10° 05:54:30 10° 339° (NNW) 2,263 4.6 -8.5°
Maximum altitude 05:57:07 15° 307° (NW) 1,981 4.1 -8.1°
Drops below altitude 10° 05:59:46 10° 275° (W) 2,288 4.3 -7.7°
Enters shadow 06:00:41 - 267° (W) 2,506 4.6 -7.6°
